Home > Weather > Idaho Falls > Past weeks

Flag for USA Past Weather in Idaho Falls, Idaho, USA — Yesterday and Last 2 Weeks

Now
62 °F

Sunny.


Feels Like: 62 °F
Forecast: 36 / 71 °F
Wind: 3 mph from North

Location: Fanning Field

Current Time: May 29, 2016 at 11:26:34 AM

Latest Report: May 29, 2016 at 10:53 AM


Visibility: 10 mi

Pressure: 30.06 "Hg (25.40 "Hg at 1429m altitude)

Humidity: 41%

Dew Point: 38 °F

Location of Idaho FallsLocation

Past Weather in Idaho Falls — Graph

°F

Idaho Falls Temperature Yesterday

Maximum temperature yesterday: 65 °F (at 3:53 PM)
Minimum temperature yesterday: 43 °F (at 2:53 AM)
Average temperature yesterday: 54 °F

High & Low Weather Summary for the Past Weeks

 TemperatureHumidityPressure
High76 °F (May 14, 3:53 PM)93% (May 17, 4:53 AM)30.12 "Hg (May 17, 4:53 AM)
Low33 °F (May 22, 5:53 AM)24% (May 28, 2:53 PM)29.56 "Hg (May 20, 4:53 PM)
Average52 °F64%29.88 "Hg
* Reported May 14 9:53 AM — May 29 9:53 AM, Idaho Falls, Weather by CustomWeather, © 2016

Note: Actual official high and low records may vary slightly from our data, if they occured in-between our weather recording intervals... More about our weather records

Advertising

Idaho Falls Weather History for the Previous 24 Hours

Scroll right to see more
 ConditionsComfort  
Time TempWeatherWind HumidityBarometerVisibility
9:53 AM
Sun, May 29
57 °FSunny.3 mph47%30.08 "Hg10 mi
8:53 AM50 °FSunny.6 mph63%30.09 "Hg10 mi
7:53 AM44 °FSunny.7 mph79%30.09 "Hg10 mi
6:53 AM37 °FClear.6 mph86%30.10 "Hg10 mi
5:53 AM35 °FClear.3 mph85%30.09 "Hg10 mi
4:53 AM35 °FClear.3 mph85%30.09 "Hg10 mi
3:53 AM38 °FClear.3 mph79%30.08 "Hg10 mi
2:53 AM41 °FClear.No wind74%30.07 "Hg10 mi
1:53 AM41 °FClear.No wind74%30.07 "Hg10 mi
12:53 AM40 °FClear.No wind83%30.08 "Hg10 mi
11:53 PM
Sat, May 28
48 °FClear.No wind52%30.06 "Hg10 mi
10:53 PM51 °FSunny.8 mph48%30.05 "Hg10 mi
9:53 PM56 °FSunny.7 mph39%30.03 "Hg10 mi
8:53 PM59 °FSunny.8 mph33%30.02 "Hg10 mi
7:53 PM62 °FSunny.12 mph27%30.01 "Hg10 mi
6:53 PM64 °FSunny.15 mph25%30.00 "Hg10 mi
5:53 PM65 °FSunny.13 mph26%30.00 "Hg10 mi
4:53 PM64 °FSunny.20 mph27%30.01 "Hg10 mi
3:53 PM65 °FPassing clouds.17 mph26%30.00 "Hg10 mi
2:53 PM64 °FPassing clouds.14 mph24%30.01 "Hg10 mi
1:53 PM62 °FPassing clouds.18 mph25%30.02 "Hg10 mi
12:53 PM60 °FPassing clouds.20 mph32%30.01 "Hg10 mi
11:53 AM56 °FPassing clouds.15 mph44%30.03 "Hg10 mi
Weather by CustomWeather, © 2016

See weather overviewHow to use our weather pages